Tracking 29892 objects as of 21-Nov-2024
HD Live streaming from Space Station
objects crossing your sky now

BREEZE-M DEB (TANK)

Track BREEZE-M DEB (TANK) now!


NORAD ID: 37935
Int'l Code: 2011-069C
Perigee: 613.0 km
Apogee: 35,207.8 km
Inclination: 48.3 °
Period: 627.6 minutes
Semi major axis: 24281 km
RCS: 5.839 m2 (large)
Launch date: November 25, 2011
Source: Commonwealth of Independent States (former USSR) (CIS)
Launch site: TYURATAM MISSILE AND SPACE COMPLEX (TTMTR)

Note: This is SATELLITE DEBRIS
Your satellite tracking list
Your tracking list is empty




NASA's NSSDC Master Catalog

Two Line Element Set (TLE):
1 37935U 11069C   24325.86419831  .00000003  00000-0  14032-2 0  9995
2 37935  48.2734 221.9520 7123739  19.6243 357.7124  2.29452524107827
Source of the keplerian elements: AFSPC